Flag for U.S.A. Weather past 2 weeks in Oxnard, California, U.S.A.

Now
56 °F

Overcast.


Feels Like: 54 °F
Forecast: 53 / 65 °F
Wind: 7 mph from Northeast

Location: Oxnard Airport

Current Time: Dec 20, 2014 at 11:07:02 AM

Latest Report: Dec 20, 2014 at 9:51 AM


Visibility: 10 mi

Pressure: 30.19 "Hg

Humidity: 70%

Dew point: 46 °F

Location of OxnardLocation

Historic Weather in Oxnard — Graph

°F

Oxnard temperature yesterday

Maximum temperature yesterday: 63 °F (at 10:51 AM)
Minimum temperature yesterday: 49 °F (at 6:51 AM)
Average temperature yesterday: 56 °F

Past Weeks' High & Low Weather Summary

 TemperatureHumidityPressure
High73 °F (Dec 7, 11:51 AM)93% (Dec 9, 1:51 AM)30.24 "Hg (Dec 9, 1:51 AM)
Low48 °F (Dec 13, 5:51 AM)37% (Dec 9, 10:51 AM)29.75 "Hg (Dec 12, 12:51 AM)
Average59 °F73%30.06 "Hg
* Reported Dec 5 9:51 AM — Dec 20 9:51 AM, Oxnard, Weather by CustomWeather, © 2014

Note: Actual official high and low records may vary slightly from our data, if they occured in-between our weather recording intervals... More about our weather records

Advertising

Oxnard weather history for previous 24 hours

 ConditionsComfort  
Time TempWeatherWind HumidityBarometerVisibility
9:51 AM
Dec 20
56 °FOvercast.7 mph70%30.19 "Hg10 mi
8:51 AM55 °FOvercast.12 mph69%30.19 "Hg10 mi
7:51 AM53 °FOvercast.9 mph74%30.17 "Hg10 mi
6:51 AM52 °FOvercast.9 mph77%30.16 "Hg10 mi
5:51 AM52 °FOvercast.8 mph77%30.14 "Hg10 mi
4:51 AM52 °FMostly cloudy.8 mph80%30.13 "Hg10 mi
3:51 AM51 °FPassing clouds.8 mph80%30.14 "Hg10 mi
2:51 AM52 °FPassing clouds.8 mph77%30.16 "Hg10 mi
1:51 AM53 °FPassing clouds.6 mph80%30.16 "Hg10 mi
12:51 AM53 °FClear.7 mph80%30.15 "Hg10 mi
11:51 PM
Dec 19
53 °FClear.5 mph83%30.19 "Hg10 mi
10:51 PM53 °FClear.6 mph86%30.18 "Hg10 mi
9:51 PM53 °FClear.6 mph86%30.17 "Hg10 mi
8:51 PM55 °FClear.No wind87%30.19 "Hg9 mi
7:51 PM57 °FClear.3 mph83%30.17 "Hg10 mi
6:51 PM57 °FClear.No wind81%30.19 "Hg10 mi
5:51 PM58 °FClear.7 mph81%30.17 "Hg10 mi
4:51 PM60 °FClear.7 mph75%30.17 "Hg10 mi
3:51 PM62 °FSunny.8 mph70%30.16 "Hg10 mi
2:51 PM62 °FSunny.3 mph65%30.15 "Hg10 mi
1:51 PM62 °FSunny.No wind62%30.15 "Hg10 mi
12:51 PM62 °FSunny.7 mph70%30.19 "Hg10 mi
11:51 AM63 °FSunny.9 mph63%30.23 "Hg10 mi
Weather by CustomWeather, © 2014

See weather overviewHow to use our weather pages